| time (UTC) | temp F | wind direction | speed knots | gust knots | rain 1hr in | rain 24hr in | rain mn in | humidity % | barometer mb |
| 20260903201855 | 68 | 131 | 0.0 | 0.0 | 0.00 | 0.00 | 0.00 | 82 | 1019.8 |
| 20260903200910 | 68 | 196 | 0.0 | 0.0 | 0.00 | 0.00 | 0.00 | 81 | 1020.0 |
| 20260903195918 | 68 | 155 | 0.0 | 0.0 | 0.00 | 0.00 | 0.00 | 80 | 1020.0 |
| 20260903194857 | 68 | 173 | 0.0 | 0.0 | 0.00 | 0.00 | 0.00 | 79 | 1020.1 |
| 20260903193850 | 68 | 224 | 0.0 | 0.0 | 0.00 | 0.00 | 0.00 | 78 | 1020.2 |
| 20260903192859 | 68 | 109 | 0.0 | 0.0 | 0.00 | 0.00 | 0.00 | 78 | 1020.3 |
| 20260903191847 | 69 | 190 | 0.0 | 0.0 | 0.00 | 0.00 | 0.00 | 79 | 1020.3 |
| 20260903190907 | 69 | 146 | 0.0 | 0.0 | 0.00 | 0.00 | 0.00 | 79 | 1020.4 |
| 20260903185911 | 69 | 172 | 0.0 | 0.0 | 0.00 | 0.00 | 0.00 | 79 | 1020.5 |
| 20260903184910 | 69 | 163 | 0.0 | 0.0 | 0.00 | 0.00 | 0.00 | 77 | 1020.6 |
| 20260903183836 | 69 | 190 | 0.0 | 0.0 | 0.00 | 0.00 | 0.00 | 76 | 1020.7 |
| 20260903182849 | 69 | 200 | 0.0 | 0.0 | 0.00 | 0.00 | 0.00 | 76 | 1021.0 |
| 20260903181859 | 69 | 200 | 0.0 | 0.0 | 0.00 | 0.00 | 0.00 | 76 | 1021.0 |
| 20260903180905 | 69 | 193 | 0.0 | 0.0 | 0.00 | 0.00 | 0.00 | 77 | 1021.1 |
| 20260903175846 | 69 | 144 | 0.0 | 0.0 | 0.00 | 0.00 | 0.00 | 76 | 1021.3 |
| 20260903174824 | 68 | 221 | 0.0 | 0.0 | 0.00 | 0.00 | 0.00 | 77 | 1021.4 |
| 20260903173844 | 68 | 206 | 0.0 | 0.0 | 0.00 | 0.00 | 0.00 | 77 | 1021.4 |
| 20260903172834 | 68 | 196 | 0.0 | 0.0 | 0.00 | 0.00 | 0.00 | 78 | 1021.4 |
| 20260903171821 | 68 | 209 | 0.0 | 0.0 | 0.00 | 0.00 | 0.00 | 78 | 1021.5 |
| 20260903170800 | 69 | 175 | 0.0 | 0.0 | 0.00 | 0.00 | 0.00 | 75 | 1021.6 |
| 20260903165819 | 69 | 140 | 0.0 | 0.0 | 0.00 | 0.00 | 0.00 | 76 | 1021.6 |
| 20260903164815 | 69 | 178 | 0.0 | 0.0 | 0.00 | 0.00 | 0.00 | 77 | 1021.6 |
| 20260903163806 | 69 | 225 | 0.0 | 0.0 | 0.00 | 0.00 | 0.00 | 77 | 1021.8 |
| 20260903162807 | 69 | 216 | 0.0 | 0.0 | 0.00 | 0.00 | 0.00 | 77 | 1021.8 |
| 20260903161801 | 68 | 188 | 0.0 | 0.0 | 0.00 | 0.00 | 0.00 | 79 | 1021.9 |
| 20260903160752 | 68 | 148 | 0.0 | 0.0 | 0.00 | 0.00 | 0.00 | 79 | 1021.7 |
| 20260903155754 | 69 | 191 | 0.0 | 0.0 | 0.00 | 0.00 | 0.00 | 78 | 1021.8 |
| 20260903154812 | 69 | 190 | 0.0 | 0.0 | 0.00 | 0.00 | 0.00 | 78 | 1022.0 |
| 20260903153821 | 68 | 205 | 0.0 | 0.0 | 0.00 | 0.00 | 0.00 | 79 | 1021.9 |
| 20260903151650 | 68 | 169 | 0.0 | 0.0 | 0.00 | 0.00 | 0.00 | 78 | 1022.2 |
| 20260902222721 | 67 | 205 | 0.0 | 0.0 | 0.00 | 0.00 | 0.00 | 83 | 1023.2 |
| 20260902221648 | 68 | 211 | 0.0 | 0.0 | 0.00 | 0.00 | 0.00 | 82 | 1023.2 |
| 20260902220633 | 68 | 222 | 0.0 | 0.0 | 0.00 | 0.00 | 0.00 | 82 | 1023.2 |
| 20260902215601 | 68 | 203 | 0.0 | 0.0 | 0.00 | 0.00 | 0.00 | 81 | 1023.2 |
| 20260902214549 | 68 | 158 | 0.0 | 0.0 | 0.00 | 0.00 | 0.00 | 82 | 1023.2 |
| 20260902210137 | 68 | 202 | 0.0 | 0.0 | 0.00 | 0.00 | 0.00 | 83 | 1023.7 |
| 20260902205107 | 68 | 128 | 0.0 | 0.0 | 0.00 | 0.00 | 0.00 | 83 | 1023.7 |
| 20260902204044 | 68 | 164 | 0.0 | 0.0 | 0.00 | 0.00 | 0.00 | 82 | 1023.8 |